ROMMA est une association bénévole à but non lucratif. Votre soutien est indispensable : ADHERER à ROMMA ou FAIRE un DON

Le Versoud - (38, Isère)

Vallée du Grésivaudan (220 m)   Longitude: 05° 51' 44" E   Latitude: 45° 13' 06" N Station partenaire n°6
 

Détail journalier du     <<     >>

Température Humidité Pression Vent Dir Rafale Dir. rafale Ensol.
Heure (°C) (%) (hPa) (km/h) (km/h) (min)
01:00 8.993102000---0
02:00 8.593102000---0
03:00 7.994102000---0
04:00 7.694102000---0
05:00 7.194102000---0
06:00 6.694102000---0
07:00 6.495102000---0
08:00 7.195102000---0
09:00 7.695102000---0
10:00 9.094102000---0
11:00 11.788102000---15
12:00 14.678101900---10
13:00 17.268101900---20
14:00 20.963101800---15
15:00 22.662101700---15
16:00 23.755101700---20
17:00 22.167101800---0
18:00 21.470101800---0
19:00 18.978101802ESE0
20:00 17.483101800---0
21:00 16.286101800---0
22:00 14.989101800---0
23:00 14.490101900---0
minuit 13.991101900---0

Graphique du 12-10-2019

 

Serveur OMMA